sat.trackr.live / text

‹ back to catalog

QIANFAN-4

NORAD 60382 · 2024-140D

PAYLOAD ACTIVE UNKNOWN

§ Identity

Operator
Country
PRC
Launch date
2024-08-06
Launch site
TAISC
Launch vehicle
Mass (kg)
RCS (m²)

External: N2YO · Heavens-Above · Gunter

§ Orbital elements

Epoch: 2026-05-25T03:54:44.925408Z

Period
106.59 min
Inclination
88.9718°
Eccentricity
0.0014893
Mean motion
13.51009386 rev/d
Perigee alt
1,057.5 km
Apogee alt
1,079.6 km
Semi-major
7,446.7 km
B*
1.4328e-4
RAAN
282.1951°
Arg perigee
81.6175°
Mean anomaly
278.6664°
Rev number
8,950

§ Raw data

QIANFAN-41 60382U 24140D   26145.16301997  .00000105  00000+0  14328-3 0  99902 60382  88.9718 282.1951 0014893  81.6175 278.6664 13.51009386 89500

JSON: /api/v1/satellites/60382 · /tle

For live sub-satellite position, see the globe view (requires WebGL).

§ Visibility from observer

Set your observer location to see the next 7 days of passes ≥ 10°. The values pass through the URL so the page stays shareable.

No JS? Fill the form by hand. The geolocation button needs JavaScript.